This is the latest recevied weather packets stored in our database for station/object DB2YI-13. If no packets are shown the sender has not sent any weather packets the latest 10 day(s).
| Time | Temp. | Humidity | Pressure | Rain* | Wind** | Luminosity | Snow |
|---|---|---|---|---|---|---|---|
| 1777816201 | 21.11° C | 38% | - | 0 mm | - | - | - |
| 1777815601 | 21.11° C | 34% | - | 0 mm | - | - | - |
| 1777815001 | 21.11° C | 34% | - | 0 mm | - | - | - |
| 1777814401 | 21.67° C | 33% | - | 0 mm | - | - | - |
| 1777813802 | 21.11° C | 33% | - | 0 mm | - | - | - |
| 1777813202 | 21.11° C | 33% | - | 0 mm | - | - | - |
| 1777812602 | 21.11° C | 33% | - | 0 mm | - | - | - |
| 1777812001 | 21.11° C | 32% | - | 0 mm | - | - | - |
| 1777811402 | 21.67° C | 33% | - | 0 mm | - | - | - |
| 1777810801 | 22.22° C | 31% | - | 0 mm | - | - | - |
| 1777810206 | 22.78° C | 32% | - | 0 mm | - | - | - |
| 1777809602 | 22.78° C | 31% | - | 0 mm | - | - | - |
| 1777809001 | 23.33° C | 31% | - | 0 mm | - | - | - |
| 1777808401 | 23.89° C | 32% | - | 0 mm | - | - | - |
| 1777807801 | 22.78° C | 32% | - | 0 mm | - | - | - |
| 1777807202 | 23.33° C | 32% | - | 0 mm | - | - | - |
| 1777806602 | 23.33° C | 31% | - | 0 mm | - | - | - |
| 1777806001 | 22.78° C | 31% | - | 0 mm | - | - | - |
| 1777805402 | 23.89° C | 32% | - | 0 mm | - | - | - |
| 1777804801 | 23.33° C | 42% | - | 0 mm | - | - | - |
| 1777804201 | 22.22° C | 45% | - | 0 mm | - | - | - |
| 1777803601 | 21.67° C | 50% | - | 0 mm | - | - | - |
| 1777803005 | 21.67° C | 48% | - | 0 mm | - | - | - |
| 1777802401 | 21.11° C | 49% | - | 0 mm | - | - | - |
| 1777801802 | 21.67° C | 50% | - | 0 mm | - | - | - |
* Rain latest hour (hover to see other rain measurements)
** Current wind speed in m/s (hover to see current wind gust speed)